Cloud_Cover
92 92 92 92 92 92 92 92 92 92 92 92 92 92 92 92 92 92 92 92 76 64 48 48 64 64 64 68 76 80 88 88 88 88 88 88 88 80 76 76 76 88 92 92 92 92 92 92 92 88 80 80 88 88 80 80 76 68 68 64 68 76 76 64 64 68 68 64 48
92 92 92 92 92 92 92 92 92 92 92 92 92 92 92 92 92 92 92 88 76 68 64 68 68 68 68 76 80 80 80 80 80 76 80 92 92 88 80 76 76 80 88 88 92 92 92 92 88 80 80 80 92 92 88 80 76 68 68 64 76 80 88 68 64 68 68 64 56
92 92 92 92 92 92 92 92 92 92 92 92 92 92 92 92 92 92 92 92 88 80 76 68 68 68 68 68 68 76 76 76 76 68 76 92 92 92 92 88 88 88 88 88 88 88 92 88 80 80 88 92 92 92 88 76 76 76 80 76 88 92 88 68 68 64 64 64 56
92 92 92 92 92 92 92 92 92 92 92 92 92 92 92 92 92 92 92 92 92 88 80 68 64 64 68 68 76 76 80 80 80 80 80 88 92 92 92 92 88 88 88 88 88 92 92 88 88 88 92 92 92 88 88 80 80 88 92 92 92 92 88 76 64 64 68 80 88
92 92 92 92 92 92 92 92 92 92 92 92 92 92 92 92 92 92 92 92 88 80 80 68 64 64 68 80 80 80 80 80 88 80 88 92 92 92 92 92 88 88 88 92 92 92 92 92 88 92 92 92 92 88 80 88 88 92 92 88 80 76 68 80 76 80 92 92 92
92 92 92 92 92 92 92 92 92 92 92 92 92 92 92 92 92 92 92 92 88 88 80 76 76 80 88 88 88 88 88 88 88 80 88 92 92 92 92 88 88 88 88 88 92 92 92 88 92 92 92 92 80 80 80 92 92 92 88 56 56 68 88 92 88 88 92 92 92
92 92 92 92 92 92 92 92 92 92 92 92 92 92 92 92 92 92 92 92 92 92 88 88 88 88 88 88 88 88 88 80 80 80 92 92 92 88 88 80 80 88 88 92 92 88 76 68 80 88 88 76 80 88 92 92 92 92 80 48 64 76 88 88 76 80 88 88 80
92 92 92 92 92 92 92 92 92 92 92 92 92 92 92 92 92 92 92 92 92 92 92 88 88 88 88 88 80 80 76 64 68 80 92 92 92 88 80 88 80 80 88 88 88 80 68 64 80 80 68 68 88 92 92 88 92 88 76 80 88 92 88 88 76 68 64 64 80
92 92 92 92 92 92 92 92 92 92 92 92 92 92 92 92 92 92 92 92 92 92 88 88 88 88 88 80 76 68 68 80 92 92 92 92 92 92 88 88 88 88 88 92 88 80 76 88 88 80 76 68 80 88 88 88 88 80 88 92 88 88 88 80 76 76 80 88 88
92 92 92 92 92 92 92 92 92 92 92 92 92 92 92 92 92 92 92 92 88 88 88 88 88 88 88 88 80 68 68 92 92 92 92 92 92 88 88 88 88 88 88 88 80 80 80 88 80 88 88 76 76 80 80 80 88 88 88 88 88 88 80 80 76 76 80 80 80
92 92 92 92 92 92 92 92 92 92 92 92 92 92 92 92 92 92 92 88 88 88 80 80 88 88 88 80 76 80 88 88 92 92 92 92 68 76 80 76 80 80 88 88 88 88 88 88 80 80 80 80 80 80 80 80 88 88 88 88 88 88 80 76 76 76 80 88 88
92 92 92 92 92 92 92 92 92 92 92 92 92 92 92 92 92 92 92 92 88 80 80 88 92 92 88 80 80 88 88 92 92 92 88 88 80 80 88 88 88 88 88 88 88 88 80 80 80 80 80 80 80 80 80 76 76 80 80 80 80 80 80 80 76 76 80 88 88
92 92 92 92 92 92 92 92 92 92 92 92 92 92 92 88 92 92 92 92 88 88 88 92 92 92 88 80 88 92 92 92 92 88 88 88 88 88 88 88 88 88 88 80 80 80 80 80 80 80 80 80 76 76 68 56 56 64 64 68 68 76 80 80 76 80 88 92 92
92 92 92 92 92 92 92 92 92 92 92 92 92 92 92 88 92 92 92 92 88 92 92 92 92 88 88 80 92 92 92 92 92 92 92 88 88 80 80 80 80 80 80 80 80 80 80 80 80 76 68 64 56 56 56 56 56 64 68 68 64 68 76 76 68 80 92 92 92
92 92 92 92 92 92 92 92 92 92 92 92 92 92 92 92 92 92 92 80 92 92 92 92 92 88 88 92 92 92 92 92 92 92 88 80 76 68 64 68 68 76 80 80 80 80 80 76 76 68 64 56 48 48 44 44 56 64 68 68 68 64 64 68 76 80 88 88 92
92 92 92 92 92 92 100 100 100 100 100 100 92 92 92 92 92 92 88 80 88 92 92 92 92 88 92 92 92 92 92 92 92 92 88 76 64 64 64 68 68 68 76 76 76 68 68 68 64 64 56 48 44 44 44 48 56 64 68 68 68 68 64 64 80 88 88 88 92
92 92 92 92 92 100 100 100 100 92 92 92 92 92 92 92 92 88 88 88 88 92 92 92 92 92 92 92 92 92 92 92 92 92 88 76 68 68 64 68 68 68 68 68 68 64 56 48 48 48 48 48 44 48 64 68 76 76 76 76 76 68 68 64 76 80 88 92 92
92 92 92 92 92 100 100 100 100 92 92 92 92 92 92 88 80 80 88 92 92 92 92 92 92 92 92 92 92 92 92 92 92 92 88 80 76 64 48 56 56 56 64 68 68 64 56 48 48 48 56 64 64 68 76 80 80 76 76 68 64 64 56 48 76 88 92 92 92
92 92 92 92 92 92 92 92 92 92 92 92 92 92 92 88 88 88 92 88 92 92 92 92 92 92 92 92 92 92 92 92 92 92 88 88 80 76 68 56 64 68 76 76 68 64 56 48 56 56 64 68 80 80 80 68 64 56 48 44 44 44 44 44 80 92 92 92 92
92 92 92 92 92 92 92 92 92 92 92 92 92 92 92 88 88 88 88 88 88 88 88 88 92 92 92 92 92 92 92 92 92 92 92 92 92 88 88 76 80 80 88 88 80 76 68 64 68 76 76 80 68 56 48 32 36 36 44 44 48 48 44 44 80 92 92 92 92
92 92 92 92 92 92 92 92 92 92 92 92 92 92 92 92 88 92 92 92 88 88 88 80 88 92 92 88 92 92 92 92 92 92 92 92 92 88 88 88 88 88 88 88 88 80 80 76 80 80 76 56 44 36 32 32 44 56 56 56 56 56 48 56 88 92 92 92 92
92 92 92 92 92 92 92 92 92 92 92 92 92 92 92 92 92 92 92 92 92 92 92 88 88 92 92 88 92 92 92 92 92 92 92 92 88 88 88 88 88 88 88 88 88 88 80 68 64 64 48 20 24 36 48 56 76 80 76 76 68 64 64 68 88 92 92 92 92
92 92 92 92 92 92 92 92 92 92 92 92 92 92 92 92 92 92 92 92 92 92 92 92 92 92 92 92 92 92 92 92 88 88 80 80 80 80 76 68 68 76 80 80 76 68 64 56 36 24 12 20 44 64 80 88 88 92 88 88 80 68 68 76 88 92 92 92 92
92 92 92 92 92 92 92 92 92 92 92 100 92 92 92 92 92 92 92 92 92 92 92 92 92 92 92 92 92 92 92 92 88 80 76 68 64 56 48 44 56 64 56 48 44 48 48 44 32 36 56 68 80 88 92 92 92 92 92 88 76 68 64 80 92 92 92 88 88
92 92 92 92 92 92 92 92 92 92 92 92 92 92 92 92 92 92 92 92 92 92 92 92 92 92 92 92 92 92 92 88 88 80 68 56 64 64 56 56 68 68 64 48 44 36 32 20 12 48 80 88 88 88 88 80 76 68 68 68 76 76 80 88 92 92 88 80 80
92 92 92 88 88 92 92 92 92 92 92 92 92 92 92 92 92 92 92 92 92 92 92 92 92 92 92 92 92 92 88 88 88 80 76 80 80 80 80 88 80 80 76 68 44 32 32 36 64 80 92 88 88 80 68 68 64 64 64 68 68 68 76 88 92 92 88 80 76
92 92 92 92 92 92 92 92 92 92 92 92 92 92 92 92 92 92 92 92 92 92 92 92 92 92 92 92 92 88 88 88 80 80 88 92 92 92 92 92 92 88 80 76 76 68 68 68 68 64 56 56 56 56 56 56 64 64 68 68 64 64 64 76 92 92 92 92 92
92 92 92 92 92 92 92 92 92 92 92 92 92 92 92 92 92 92 92 88 92 92 92 92 92 92 92 88 88 88 88 92 92 92 92 92 92 92 92 92 92 92 92 80 76 76 68 56 56 48 36 32 36 36 48 76 64 64 68 64 56 68 88 92 92 92 92 92 92
92 92 92 92 92 92 92 92 92 92 92 92 92 92 92 92 92 92 92 92 92 92 92 92 92 92 92 92 92 88 88 92 92 92 92 92 92 92 92 92 92 92 88 68 64 56 48 36 32 24 12 12 24 36 48 64 76 80 76 56 88 92 92 92 92 92 92 92 92
92 92 92 88 92 92 92 92 92 92 92 92 92 92 92 92 92 92 92 92 92 92 92 92 92 92 92 92 92 92 92 92 92 92 92 92 92 92 92 92 92 92 88 68 44 36 36 32 32 24 12 8 24 32 44 56 68 76 80 92 92 92 92 92 92 92 92 92 92
92 92 92 92 92 92 92 92 92 92 92 92 92 92 92 92 92 92 92 92 92 92 92 92 92 92 92 92 92 92 92 92 92 92 92 92 92 92 92 92 92 80 68 48 36 36 32 32 32 24 24 20 24 32 32 44 48 76 92 92 92 92 92 92 92 92 92 92 92
92 92 92 92 92 92 92 92 92 92 92 92 92 92 92 92 92 92 92 92 92 92 92 92 92 92 92 92 92 92 92 92 92 92 92 92 88 88 88 76 68 64 56 44 76 76 56 24 20 20 20 20 24 24 24 32 44 68 92 92 92 92 92 92 92 92 92 92 92
92 92 92 92 92 92 92 92 92 92 92 92 92 92 92 92 92 92 92 92 92 92 92 92 92 92 92 92 92 92 92 92 92 88 80 68 64 64 64 64 64 76 92 92 92 92 80 56 36 24 32 36 36 36 36 44 80 92 92 92 92 92 92 92 92 92 92 92 92
100 100 92 92 92 92 92 92 92 92 92 92 92 92 92 92 92 92 92 92 92 92 92 92 88 88 88 88 92 92 92 88 80 68 64 56 56 56 56 64 80 92 92 92 92 92 92 92 88 80 68 64 56 48 56 92 92 92 92 92 92 92 92 92 92 92 92 92 92
92 92 92 100 92 92 92 92 92 92 92 92 92 92 92 92 92 92 92 92 92 92 88 80 68 64 64 68 80 88 88 88 88 80 76 68 64 64 68 92 92 92 92 92 92 92 92 92 92 92 92 92 92 88 88 92 92 92 92 92 92 92 92 92 92 92 92 92 92
92 92 92 92 92 92 92 92 92 92 92 92 92 92 92 92 92 92 92 92 92 92 88 80 76 64 56 48 48 48 56 68 80 88 92 88 80 68 76 92 92 92 92 92 92 92 92 92 92 92 92 92 92 92 92 92 92 92 92 92 92 92 92 92 92 92 92 92 92
92 92 92 92 92 92 92 92 92 92 92 92 92 92 92 92 92 92 92 92 92 92 92 88 80 76 64 48 48 44 44 48 68 80 88 88 88 88 88 92 92 92 88 92 92 92 92 92 92 88 88 92 92 92 92 92 92 92 92 92 92 92 92 92 92 92 92 92 92
92 92 92 92 92 92 92 92 92 92 92 92 92 92 92 92 92 92 92 92 88 92 92 92 92 80 68 64 56 48 44 36 56 68 80 88 88 88 88 92 92 92 92 92 92 92 92 88 80 80 80 88 92 92 92 92 92 92 92 92 92 92 92 92 92 92 92 92 92
88 88 92 92 92 92 92 100 92 92 92 92 92 92 92 92 92 92 88 80 80 88 92 92 92 88 88 80 76 68 56 48 56 64 64 68 80 88 88 92 92 92 92 92 92 92 80 76 68 68 76 80 92 92 92 92 92 92 92 92 92 92 92 92 92 92 92 92 92
80 88 88 92 92 92 92 92 92 100 92 92 92 92 92 92 92 92 92 92 88 88 92 92 92 92 92 92 88 80 76 68 64 56 48 48 76 88 88 88 88 88 92 92 92 92 92 80 76 64 56 76 88 92 92 92 92 92 92 92 92 92 92 92 92 92 92 92 92
80 80 88 88 92 92 92 92 92 92 92 92 92 92 92 92 92 92 92 92 92 92 92 92 92 92 92 92 88 80 76 76 64 56 48 44 76 88 88 80 68 76 80 92 92 92 92 92 88 76 68 76 88 88 92 92 92 92 92 92 92 92 92 92 92 92 92 92 92